www.pogodaiklimat.ru

Погода и климат >> Архив погоды >> Россия >> Якутия >> Шелагонцы


ПОГОДА в Шелагонцах

  • Прогноз погоды в Шелагонцах
  • Монитор погоды в Шелагонцах
  • Климат города

АРХИВ ПОГОДЫ в Шелагонцах

Время (UTC), дата Ветер
(напр.,м/с)
 
Видим.   Явления Облачность Т
(С)
Тd
(С)
f
(%)
Тe
(С)
Тes
(С)
Комфортность P
(гПа)
Po
(гПа)
Тmin
(С)
Tmax
(С)
R
(мм)
R24
(мм)
S
(см)
06 23.04 ЮЗ 2 20 км слабый снег 10/10 1000 м
[Sc]
-2.6 -6.0 77 -6 -6 1024.2 994.3
09 23.04 штиль 0 20 км слабый снег 10/10 1000 м
[Sc]
-1.4 -6.1 70 -2 -2 1024.6 994.7
12 23.04 50 км {снег} н/о -1.8 -8.8 59 -6 -6 1025.8 995.8 -1.2 3
15 23.04 штиль 0 50 км 10/6 1000 м
[Sc]
-11.1 -13.2 84 -11 -11 1026.9 995.9
21 23.04 В 2 50 км 4/0
[Ac lent]
-17.0 -18.2 90 -22 -22 1028.5 996.7
00 24.04 Ю 5 50 км 10/0
[Ac As]
-2.0 -9.5 56 -8 -7 1024.3 994.4 -17.4 40
03 24.04 ЮЗ 4 50 км позёмок {метель} 10/4 1000 м
[Sc Ac As]
+0.5 -6.5 59 -4 -3 1022.5 992.9
06 24.04 З 4 50 км {метель} 10/10 1000 м
[Sc]
+2.9 -6.3 51 -1 -1 1021.5 992.1
09 24.04 ЮЗ 4 50 км 6/6 1000 м
[Cb cap]
+4.8 -4.7 50 +1 +2 1020.9 991.8
12 24.04 СЗ 4 50 км 8/8 600 м
[Cb cap]
+3.3 -4.9 55 -1 -1 1022.3 993.1 +4.9
15 24.04 штиль 0 50 км 6/6 1000 м
[Cb cap]
-2.1 -5.8 76 -3 -3 1023.7 993.8
18 24.04 штиль 0 50 км 3/0
[Cc]
-11.2 -11.8 95 -11 -11 1026.0 995.0
21 24.04 штиль 0 50 км 4/0
[Cc]
-15.3 -16.6 90 -15 -15 1027.0 995.5
00 25.04 штиль 0 50 км 4/0
[Cc]
-8.2 -12.9 69 -9 -4 1026.3 995.6 -15.7 40
03 25.04 В 2 50 км 3/0
[Ci fib]
+4.7 -6.9 43 +3 +10 1022.7 993.6
06 25.04 Ю 3 50 км 3/1 1000 м
[Cu hum Ci fib]
+7.7 -5.8 38 +6 +11 1019.5 990.8
09 25.04 З 3 50 км 9/3 1000 м
[Sc Ac trans Ci fib]
+8.9 -6.3 34 +7 +8 1016.4 987.9
12 25.04 ЮВ 2 50 км 10/10 1000 м
[Sc]
+7.6 -3.5 45 +6 +6 1013.2 984.6 +9.2
15 25.04 Ю 2 50 км 10/10 1000 м
[Sc]
+7.0 -7.5 35 +6 +6 1009.4 981.5
18 25.04 штиль 0 50 км 9/8 600 м
[Cb cap]
+6.9 -6.8 37 +7 +7 1007.0 979.1
21 25.04 штиль 0 50 км в посл. час снег ясно +1.4 -1.8 79 0 +1 1006.8 977.8
00 26.04 З 6 50 км {ливн. осадки} 10/10 1000 м
[Sc]
+3.1 -3.7 61 -2 -2 1006.0 977.2 +1.2 0.1 35
03 26.04 З 6 20 км слабый ливневой дождь со снегом 10/10 600 м
[Cb cap]
+2.0 -1.4 78 -4 -4 1006.9 978.0
06 26.04 СЗ 5 20 км слабый ливневой снег 10/10 600 м
[Cb cap]
+1.6 -2.5 74 -4 -4 1008.9 979.8
09 26.04 ЮЗ 3 20 км слабый ливневой снег 10/10 600 м
[Cb cap]
+1.7 -2.0 76 -2 -2 1009.0 979.9
12 26.04 СЗ 4 20 км слабый ливневой дождь 10/10 1000 м
[Cb cap]
+1.3 -2.8 74 -4 -4 1009.4 980.3 +3.1 0.1
15 26.04 З 2 50 км {ливн. осадки} 8/8 600 м
[Sc]
+2.0 -0.8 82 -1 -1 1008.8 979.7
18 26.04 штиль 0 50 км {ливн. осадки} 3/3 600 м
[Sc]
-5.9 -8.2 84 -7 -7 1008.1 978.2
21 26.04 штиль 0 50 км 4/4 1000 м
[Sc]
-10.2 -10.8 95 -11 -10 1007.9 977.5
00 27.04 ЮЗ 1 50 км 8/3 1000 м
[Sc Ac trans Ci fib]
-4.5 -8.4 74 -7 -5 1007.0 977.3 -10.6 35
03 27.04 С 1 50 км 8/3 1000 м
[Cu med, cong Ac trans Ci fib]
+4.1 -4.2 55 +3 +7 1005.6 976.9
06 27.04 С 4 50 км 9/9 1000 м
[Sc]
+4.0 -6.8 45 0 +1 1006.1 977.3
09 27.04 С 4 50 км 10/10 1000 м
[Sc]
+3.7 -6.4 48 -0 -0 1006.4 977.6
12 27.04 С 4 50 км 10/10 1000 м
[Sc]
+2.4 -5.4 56 -2 -2 1004.8 978.9 +4.8
15 27.04 СВ 2 50 км 8/8 1000 м
[Sc]
+0.4 -3.6 74 -3 -3 1007.5 978.4
18 27.04 штиль 0 50 км 10/10 1000 м
[Sc]
-0.4 -3.0 83 -2 -2 1007.7 978.4
21 27.04 СВ 1 20 км слабый снег 10/10 1000 м
[Sc]
-2.2 -3.8 89 -4 -4 1006.1 976.7
00 28.04 СВ 3 50 км {снег} 10/10 1000 м
[Sc]
-1.6 -8.1 61 -6 -6 1004.2 975.0 -2.3 0.0 35
03 28.04 В 4 50 км 9/9 1000 м
[Sc]
-0.2 -7.4 58 -5 -5 1002.5 973.4
06 28.04 СВ 5 50 км 10/10 1000 м
[Sc]
-0.5 -8.5 55 -6 -6 1002.8 973.7
09 28.04 СВ 5 50 км 10/10 1000 м
[Sc]
-1.0 -9.3 53 -7 -7 1005.6 976.4
12 28.04 СЗ 6 50 км 10/10 1000 м
[Sc]
-2.1 -11.1 50 -9 -9 1009.1 979.6 +0.1
15 28.04 СЗ 4 50 км 9/9 1000 м
[Sc]
-5.2 -12.6 56 -11 -11 1012.5 982.5
18 28.04 СЗ 3 50 км 3/0
[Ac lent]
-8.2 -14.5 60 -14 -14 1014.4 984.1
21 28.04 З 3 50 км ясно -12.1 -15.6 75 -18 -18 1016.4 985.5
00 29.04 СЗ 2 50 км ясно -10.1 -16.4 60 -14 -11 1016.5 985.9 -12.2 33
03 29.04 С 3 50 км ясно -6.7 -13.9 57 -12 -5 1015.0 984.8
06 29.04 З 2 50 км 4/0
[Ac lent]
-4.2 -14.3 45 -8 -2 1013.6 983.9
09 29.04 штиль 0 50 км 10/0
[As op]
-3.2 -14.3 42 -3 -3 1011.2 981.6
12 29.04 Ю 1 50 км 8/0
[Ac As Ci fib]
-3.1 -14.7 40 -5 -4 1009.5 979.9 -2.7
15 29.04 СВ 2 50 км ясно -5.2 -14.9 46 -9 -9 1004.6 977.7
18 29.04 В 3 50 км ясно -5.0 -12.9 54 -10 -10 1004.1 974.4
21 29.04 В 4 20 км слабый снег 10/10 1000 м
[Sc]
-5.4 -7.9 83 -12 -12 999.5 970.0
00 30.04 В 3 20 км слабый снег 10/10 1000 м
[Sc]
-3.8 -6.3 83 -9 -9 994.9 965.7 -6.9 0.2 33

 

Местоположение метеостанции Шелагонцы (Якутия, Россия): широта 66.25 долгота 114.20 высота над уровнем моря 236 м.

В архиве по умолчанию представлена погода в Шелагонцах за последнюю неделю. Архивные данные за месяц целиком и за предыдущие месяцы, начиная с января 2011 года, Вы можете получить, выбрав интересующий диапазон дат из раскрывающегося списка и нажав кнопку "Ввод!".

Внимание! Время в таблицах - всемирное. Для получения местного времени необходимо прибавить поправку, которая в Шелагонцах равна 9 ч.

Смотрите также архив погоды в соседних городах и на ближайших метеорологических станциях:

Погода в Полярном (Якутия, Россия) (96 км)
Погода в Эйке (Якутия, Россия) (146 км)
Погода в Хабардино (Якутия, Россия) (200 км)
Погода в Чумпуруке (Якутия, Россия) (257 км)
Погода в Оленеке (Якутия, Россия) (262 км)
Погода в Ярольине (Якутия, Россия) (269 км)
Погода в Сухане (Якутия, Россия) (316 км)
Погода в Чернышевском (Якутия, Россия) (368 км)
Погода в Нюрбе (Якутия, Россия) (383 км)
Погода в Жиганске (Якутия, Россия) (407 км)

Пояснения к столбцам:

Ветер - указаны скорость ветра в м/с - средняя за 10 мин, порывы в срок и между сроками (в фигурных скобках) и направление, откуда дует ветер: С - северный, СВ - северо-восточный, В - восточный, ЮВ - юго-восточный, Ю - южный, ЮЗ - юго-западный, З - западный, СЗ - северо-западный.
Видимость - горизонтальная дальность видимости в метрах или километрах. При видимости от 1 до 10 км при отсутствии осадков обычно наблюдается дымка, при ухудшении видимости до 1 км и менее - туман. В сухую погоду видимость может ухудшаться дымом, пылью или мглою.
Явления - указаны атмосферные явления, наблюдавшиеся в срок или в последний час перед сроком; фигурными скобками обозначены явления, наблюдавшиеся между сроками (за 1-3 часа до срока); квадратными скобками обозначены град или гололедные отложения с указанием их диаметра в мм.
Облачность - указаны через наклонную черту общая и нижняя облачность в баллах и высота нижней границы облаков в метрах; квадратными скобками обозначены формы облаков: Ci - перистые, Cs - перисто-слоистые, Cc - перисто-кучевые, Ac - высококучевые, As - высокослоистые, Sc - слоисто-кучевые, Ns - слоисто-дождевые, Cu - кучевые, Cb - кучево-дождевые. Подробнее классификацию облаков см. в Атласе облаков (PDF).
T - Температура воздуха - температура, измеренная на высоте 2 м над землей.
Td - Температура точки росы - температура, при понижении до которой содержащийся в воздухе водяной пар достигнет насыщения.
f - Относительная влажность воздуха - влажноcть воздуха, измеренная на высоте 2 м над землей.
Te - Эффективная температура - температура, которую ощущает одетый по сезону человек в тени. Характеристика душности погоды. При расчете учитывается влияние влажности воздуха и скорости ветра на теплоощущения человека.
Tes - Эффективная температура на солнце - температура, которую ощущает человек, с поправкой на солнечный нагрев. Характеристика знойности погоды. Зависит от высоты солнца над горизонтом, облачности и скорости ветра. Ночью, в пасмурную погоду, а также при ветре 12 м/с и более поправка равна нулю.
P - Атмосферное давление - приведенное к уровню моря атмосферное давление.
Po - Атмосферное давление - измеренное на уровне метеостанции атмосферное давление.
Tmin - Минимальная температура - минимум температуры воздуха на высоте 2 м над землей.
Tmax - Максимальная температура - максимум температуры воздуха на высоте 2 м над землей.
R - Количество осадков - Количество выпавших осадков за период времени, мм. При наведении курсора мыши на число - период времени, за который выпало указанное количество осадков.
R24 - Количество осадков - Количество выпавших осадков за 24 часа, мм.
S - Снежный покров - Высота снежного покрова, см. При наведении курсора мыши на число - состояние снежного покрова и степень покрытия местности в баллах.